{"data":{"norad_id":66396,"intl_designator":"2025-257S","name":"STARLINK-35669","alt_names":[],"object_type":"PAYLOAD","status":"ACTIVE","operator":null,"country":"US","launch_date":"2025-11-09","launch_site_code":"AFETR","launch_vehicle":null,"mission":null,"orbit_class":"UNKNOWN","rcs_meters":null,"size_class":null,"mass_kg":null,"dimensions":null,"purposes":["comms"],"wikipedia_slug":null,"has_3d_model":false,"image_url":null,"decayed_at":null,"tle_current":{"epoch":"2026-05-25T04:59:10.284288Z","epoch_age_seconds":67815,"freshness":"FRESH","line1":"1 66396U 25257S   26145.20775792  .00017972  00000+0  54157-3 0  9998","line2":"2 66396  53.1583 220.5498 0001097  86.1044 274.0084 15.34411512 31463","mean_motion":15.34411512,"eccentricity":0.0001097,"inclination_deg":53.1583,"raan_deg":220.5498,"arg_perigee_deg":86.1044,"mean_anomaly_deg":274.0084,"bstar":0.00054157,"rev_number":3146,"period_min":93.847053983782,"perigee_km":461.91858791012,"apogee_km":463.41946075185,"semimajor_km":6840.806024331,"source":"CELESTRAK","updated_at":"2026-05-25T13:38:21.203676Z"}}}